Bryce Canyon, UT

8:52 PM MDT on October 23, 2019 (GMT -0600)
Bryce Canyon

Weather History for KBCE - August, 2019

Change the Weather History Date:

Wednesday, August 7, 2019

  Actual Average Record
Temperature  
Mean Temperature 65 °F -  
Max Temperature 73 °F 79 °F 90 °F (1981)
Min Temperature 57 °F 46 °F 32 °F (2011)
Growing Degree Days 15 (Base 50)    
Moisture  
Dew Point 52 °F    
Average Humidity 71    
Maximum Humidity 87    
Minimum Humidity 44    
Precipitation  
Precipitation 0.17 in - - ()
Sea Level Pressure  
Sea Level Pressure 30.02 in    
Wind  
Wind Speed 6 mph (NNW)    
Max Wind Speed 18 mph    
Max Gust Speed -    
Visibility 10 miles    
Events Rain , Thunderstorm    
Averages and records for this station are not official NWS values.
T = Trace of Precipitation, MM = Missing Value Source: NWS Daily Summary

Daily Weather History Graph

Daily Weather History Graph

Search for Another Location

Airport or City:

Astronomy

Aug. 07, 2019 Rise Set
Actual Time 6:37 AM MDT 8:30 PM MDT
Civil Twilight 6:08 AM MDT 8:59 PM MDT
Nautical Twilight 5:33 AM MDT 9:34 PM MDT
Astronomical Twilight 4:56 AM MDT 10:11 PM MDT
Moon 2:05 PM MDT (8/7) 12:26 AM MDT (8/7)
Length of Visible Light 14h 50m
Length of Day
13h 53m
Waxing Crescent, 50% of the Moon is Illuminated
Aug 7
Waxing Crescent
Aug 15
Full
Aug 23
Last Quarter
Aug 30
New
Sep 5
First Quarter

Hourly Weather History & Observations

Time (MDT) Temp. Dew Point Humidity Pressure Visibility Wind Dir Wind Speed Gust Speed Precip Events Conditions
12:53 AM 63.0 °F 48.9 °F 60% 29.95 in 10.0 mi WSW 9.2 mph - 0.00 in   Clear
1:53 AM 61.0 °F 51.1 °F 70% 29.96 in 10.0 mi North 4.6 mph - N/A   Scattered Clouds
2:53 AM 59.0 °F 52.0 °F 78% 29.96 in 10.0 mi Calm Calm - N/A   Overcast
3:53 AM 60.1 °F 52.0 °F 75% 29.97 in 10.0 mi Calm Calm - 0.00 in   Overcast
4:53 AM 61.0 °F 50.0 °F 67% 29.96 in 10.0 mi ESE 4.6 mph - N/A   Overcast
5:53 AM 60.1 °F 51.1 °F 72% 29.97 in 10.0 mi Calm Calm - N/A   Overcast
6:53 AM 57.9 °F 53.1 °F 84% 29.99 in 9.0 mi SSW 3.5 mph - 0.01 in Rain Light Rain
7:53 AM 57.9 °F 53.1 °F 84% 30.01 in 10.0 mi NW 6.9 mph - 0.03 in   Overcast
8:53 AM 57.9 °F 52.0 °F 81% 30.04 in 10.0 mi West 4.6 mph - 0.00 in Rain Light Rain
9:53 AM 57.9 °F 52.0 °F 81% 30.07 in 10.0 mi NNW 5.8 mph - 0.01 in Rain Light Rain
10:53 AM 57.0 °F 52.0 °F 83% 30.06 in 10.0 mi NW 5.8 mph - 0.00 in Rain Light Rain
11:53 AM 57.0 °F 53.1 °F 87% 30.08 in 8.0 mi NNE 6.9 mph - 0.06 in Rain Light Rain
12:53 PM 59.0 °F 53.1 °F 81% 30.06 in 10.0 mi NE 17.3 mph - 0.03 in   Overcast
1:53 PM 61.0 °F 52.0 °F 72% 30.04 in 10.0 mi NNE 18.4 mph - 0.00 in   Overcast
2:53 PM 66.0 °F 53.1 °F 63% 30.01 in 10.0 mi NE 16.1 mph - N/A   Overcast
3:53 PM 69.1 °F 53.1 °F 57% 29.96 in 10.0 mi NE 11.5 mph - N/A   Mostly Cloudy
4:53 PM 70.0 °F 51.1 °F 51% 29.94 in 10.0 mi NE 8.1 mph - N/A   Mostly Cloudy
5:53 PM 73.0 °F 50.0 °F 44% 29.91 in 10.0 mi ENE 3.5 mph - N/A   Mostly Cloudy
6:53 PM 73.0 °F 50.0 °F 44% 29.90 in 10.0 mi NNE 3.5 mph - N/A   Scattered Clouds
8:53 PM 61.0 °F 55.9 °F 83% 29.96 in 10.0 mi Calm Calm - N/A   Partly Cloudy
9:53 PM 62.1 °F 55.9 °F 80% 29.99 in 10.0 mi WSW 3.5 mph - N/A   Overcast
10:53 PM 62.1 °F 55.0 °F 78% 30.00 in 10.0 mi SW 5.8 mph - 0.01 in Rain Light Rain
11:25 PM 61.0 °F 52.0 °F 72% 30.33 in 10.0 mi SW 8.1 mph - 0.02 in Rain , Thunderstorm Light Thunderstorms and Rain
11:46 PM 60.1 °F 50.0 °F 69% 30.33 in 10.0 mi SW 10.4 mph - 0.02 in Rain Light Rain
11:53 PM 61.0 °F 50.0 °F 67% 30.02 in 10.0 mi WSW 13.8 mph - 0.02 in Rain Light Rain